Weather in Cherikov

Belarus     53°34′10″N   31°22′50″E
В апреле 2022 года жителям России запретили посещать сайт meteo.paraplan.net по решению Генеральной прокуратуры. Аудитория сайта уменьшилась в 10 раз. Владельцы сайта не видят смысла в поддержке погодного сервера в таких условиях. Сайт будет закрыт в октябре.
temp.,
°C
wind,
m/s
gust,
m/s
humid.,
%
clouds,
%
prec.,
mm/h
press.,
hPa
HPBL,
m
3 october, mon
mon300:00+8nnw71296100 6.7 990652
03:00+8nnw71296100 8.1 988629
06:00+8nnw61196100 2.1 986674
09:00+7wnw61196100 4.7 985720
12:00+5w81294100 2.1 986820
15:00+3wsw71497100 3.9 989740
18:00+3sw71397100 2.8 991677
21:00+3sw61397100 5.4 993603
4 october, tue
tue400:00+3sw61197100 3.0 995579
03:00+3sw4997100 4.4 997637
06:00+3sw4897100 0.8 999588
09:00+4ssw4798100 1.5 1000852
12:00+5sw4898100 0.5 1003647
15:00+5wsw4795100 2.0 10051040
18:00+5wsw4796100 0.8 1007831
21:00+6wsw3894100 0.8 1009495
5 october, wed
wed500:00+6w4894100 0.4 1010524
03:00+6w4894100 0.7 1012865
06:00+6wnw5109395 0.3 1014839
09:00+7wnw399151 0.4 1016594
12:00+10wnw5877100 0.1 10171033
15:00+11w5879100 0.3 10181085
18:00+9w3892100 0.5 1019505
21:00+8wsw41092100 0.8 1019445
6 october, thu
thu600:00+9sw31093100 0.0 1019363
03:00+9wsw389799 0.0 1019264
06:00+9wsw3996100 0.0 1019291
09:00+10sw3994100 0.1 1019322
12:00+14wsw587566 0.0 1018563
15:00+17wsw58655 0.0 1018888
18:00+14wsw410795 0.0 1018431
21:00+13w4128358 0.0 1019567
7 october, fri
fri700:00+11wnw512820 0.0 1022574
03:00+9wnw411930 0.0 1023447
06:00+7w411940 0.0 1024345
09:00+8w4108923 0.0 1025396
12:00+13wnw576916 0.0 1026820
15:00+14wnw466229 0.0 10251110
18:00+11wsw22810 0.0 102533
21:00+9sw26925 0.0 1026115